Starlink 31696

operational
NORAD ID: 59435 Int'l Des: 2024-065 Owner: SPXS Country: US Constellation: starlink
LEOCIRCULAR

About Starlink 31696

Description loading...

Live Position

Loading 3D Globe...

Upcoming Passes

Altitude History

Altitude vs Time

uPlot chart will show altitude changes over time

Two-Line Element Set

1 59435U 24065Q 25258.59823570 .00002055 00000-0 81515-4 0 9990
2 59435 53.1622 14.8480 0001295 78.3141 281.8005 15.30192336 82123
Epoch: Sep 15, 2025 • Age: 16 hours

Current Status

Altitude 475.8 km
Velocity 7.63 km/s
Sub-Earth Point 4.06°N, 91.25°E
Launch Date Apr 7, 2024
Age 1.4 years
Type internet

Technical Details

Classification Payload
Mass 730.00 kg
Dry Mass 700.00 kg
Total Mass 730.00 kg
Length 0.30 m
Diameter 4.10 m
Span 29.00 m
Shape Box + pan
Manufacturer SPXS
Bus Type Starlink V2M
Phase Status In Orbit
Owner/State SPXS/US

Large Constellations

Loading constellations...